Regional Weather Roundup
Issued by NWS

Home | Current Version | Previous Version | Text Only | Print | Product List | Glossary Off
Versions: 1 2 3 4 5 6 7 8 9 10 11 12 13 14 15 16 17 18 19 20 21 22 23 24 25 26 27 28 29 30 31 32 33 34 35 36 37 38 39 40 41 42 43 44 45 46 47 48 49 50

000
ASUS43 KFSD 310402
RWRSD

WEATHER ROUNDUP FOR SOUTH DAKOTA
NATIONAL WEATHER SERVICE SIOUX FALLS SD
1100 PM CDT THU JUL 30 2015

NOTE: "FAIR" INDICATES FEW OR NO CLOUDS BELOW 12,000 FEET WITH NO
SIGNIFICANT WEATHER AND/OR OBSTRUCTIONS TO VISIBILITY.


SDZ001>005-009-010-012>017-310500-
NORTHWEST AND NORTH CENTRAL SOUTH DAKOTA

CITY           SKY/WX    TMP DP  RH WIND       PRES   REMARKS
BUFFALO          N/A     69  49  48 NE8       30.16R
FAITH            N/A     67  48  50 E9        30.18R
MOBRIDGE       CLEAR     71  53  52 E8        30.13R
$$

SDZ012>016-024>037-041>051-057-063-072>074-310500-
SOUTHWEST AND SOUTH CENTRAL SOUTH DAKOTA

CITY           SKY/WX    TMP DP  RH WIND       PRES   REMARKS
RAPID CTY ARPT CLEAR     65  51  60 W7        30.20R
PIERRE         CLEAR     69  56  62 E5        30.12R
CUSTER         CLEAR     61  46  57 N3        30.37R
ELLSWORTH AFB  CLEAR     68  51  53 W8        30.20R HAZE
PHILIP         CLEAR     68  54  60 CALM      30.14R
PINE RIDGE     CLEAR     63  50  62 E9        30.23R
WINNER         FAIR      74  54  49 S8        30.15R
$$

SDZ004>011-016>023-039-040-310500-
NORTHEAST SOUTH DAKOTA

CITY           SKY/WX    TMP DP  RH WIND       PRES   REMARKS
ABERDEEN       CLEAR     63  54  72 NW3       30.12R
WATERTOWN      CLEAR     69  58  67 W5        30.12R
BROOKINGS      CLOUDY    70  59  68 NW3       30.14R
SISSETON         N/A     66  56  70 W9        30.08R
$$

SDZ017-020-022-023-036>040-048>070-310500-
SOUTHEAST SOUTH DAKOTA

CITY           SKY/WX    TMP DP  RH WIND       PRES   REMARKS
SIOUX FALLS    PTCLDY    70  62  76 SW3       30.11R
HURON          CLEAR     72  60  66 NE7       30.11R
MITCHELL       CLEAR     69  62  78 CALM      30.11R
YANKTON        CLEAR     75  64  69 S3        30.11S
$$

ABBREVIATIONS USED IN REMARKS
   TC - TEMPERATURE IN CELSIUS
  WCI - WIND CHILL INDEX
   HX - HEAT INDEX
  VSB - VISIBILITY




USA.gov is the U.S. government's official web portal to all federal, state and local government web resources and services.